| time (UTC) | temp C | wind direction | speed KPH | gust KPH | rain 1hr cm | rain 24hr cm | rain mn cm | humidity % | barometer mb |
| 20260504044609 | 9 | 149 | 1.6 | 6.4 | 0.00 | 0.05 | 0.00 | 51 | 1009.9 |
| 20260504043055 | 10 | 157 | 1.6 | 4.8 | 0.00 | 0.05 | 0.00 | 51 | 1009.9 |
| 20260504041552 | 10 | 163 | 0.0 | 4.8 | 0.00 | 0.05 | 0.00 | 49 | 1009.9 |
| 20260504040106 | 10 | 0 | 0.0 | 3.2 | 0.00 | 0.05 | 0.00 | 49 | 1009.9 |
| 20260504034607 | 10 | 163 | 0.0 | 3.2 | 0.00 | 0.05 | 0.05 | 53 | 1009.9 |
| 20260504033055 | 10 | 0 | 0.0 | 3.2 | 0.00 | 0.05 | 0.05 | 50 | 1010.1 |
| 20260504031550 | 10 | 0 | 0.0 | 3.2 | 0.00 | 0.05 | 0.05 | 49 | 1010.3 |
| 20260504030056 | 10 | 163 | 0.0 | 3.2 | 0.00 | 0.05 | 0.05 | 52 | 1010.3 |
| 20260504024550 | 10 | 163 | 0.0 | 3.2 | 0.00 | 0.05 | 0.05 | 53 | 1010.4 |
| 20260504023048 | 10 | 0 | 0.0 | 1.6 | 0.00 | 0.05 | 0.05 | 49 | 1010.3 |
| 20260504021553 | 11 | 0 | 0.0 | 4.8 | 0.00 | 0.05 | 0.05 | 48 | 1010.5 |
| 20260504020050 | 11 | 157 | 1.6 | 8.0 | 0.00 | 0.05 | 0.05 | 48 | 1010.4 |
| 20260504014554 | 11 | 203 | 1.6 | 9.7 | 0.00 | 0.05 | 0.05 | 48 | 1010.3 |
| 20260504013111 | 11 | 203 | 6.4 | 24.1 | 0.00 | 0.05 | 0.05 | 47 | 1010.4 |
| 20260504011552 | 11 | 225 | 3.2 | 17.7 | 0.00 | 0.05 | 0.05 | 46 | 1010.7 |
| 20260504010058 | 12 | 181 | 3.2 | 20.9 | 0.00 | 0.05 | 0.05 | 44 | 1010.3 |
| 20260504004607 | 11 | 184 | 6.4 | 25.7 | 0.00 | 0.05 | 0.05 | 45 | 1010.1 |
| 20260504003049 | 11 | 204 | 4.8 | 12.9 | 0.00 | 0.05 | 0.05 | 47 | 1010.3 |
| 20260504001552 | 11 | 240 | 8.0 | 19.3 | 0.00 | 0.05 | 0.05 | 47 | 1010.3 |
| 20260504000056 | 11 | 218 | 4.8 | 16.1 | 0.00 | 0.05 | 0.05 | 47 | 1010.2 |
| 20260503234552 | 11 | 226 | 4.8 | 19.3 | 0.00 | 0.05 | 0.05 | 46 | 1010.0 |
| 20260503233100 | 12 | 234 | 9.7 | 30.6 | 0.00 | 0.05 | 0.05 | 44 | 1010.0 |
| 20260503231553 | 12 | 234 | 1.6 | 9.7 | 0.00 | 0.05 | 0.05 | 45 | 1009.6 |
| 20260503230058 | 12 | 207 | 3.2 | 11.3 | 0.00 | 0.05 | 0.05 | 44 | 1009.4 |
| 20260503224557 | 12 | 252 | 1.6 | 14.5 | 0.00 | 0.05 | 0.05 | 44 | 1009.2 |
| 20260503223052 | 12 | 155 | 0.0 | 8.0 | 0.00 | 0.05 | 0.05 | 47 | 1009.4 |
| 20260503221550 | 12 | 175 | 1.6 | 11.3 | 0.00 | 0.05 | 0.05 | 45 | 1009.4 |
| 20260503220056 | 12 | 201 | 3.2 | 11.3 | 0.00 | 0.05 | 0.05 | 45 | 1009.5 |
| 20260503214550 | 12 | 233 | 3.2 | 12.9 | 0.00 | 0.05 | 0.05 | 45 | 1009.5 |
| 20260503213048 | 12 | 214 | 1.6 | 16.1 | 0.00 | 0.05 | 0.05 | 43 | 1009.5 |
| 20260503211549 | 12 | 210 | 3.2 | 12.9 | 0.00 | 0.05 | 0.05 | 45 | 1009.5 |
| 20260503210052 | 12 | 228 | 3.2 | 12.9 | 0.00 | 0.05 | 0.05 | 46 | 1009.6 |
| 20260503204551 | 11 | 226 | 3.2 | 14.5 | 0.00 | 0.05 | 0.05 | 46 | 1009.8 |
| 20260503203054 | 11 | 200 | 4.8 | 16.1 | 0.00 | 0.05 | 0.05 | 46 | 1009.9 |
| 20260503201550 | 11 | 159 | 4.8 | 22.5 | 0.00 | 0.05 | 0.05 | 47 | 1010.1 |
| 20260503200050 | 11 | 219 | 4.8 | 25.7 | 0.00 | 0.05 | 0.05 | 44 | 1010.0 |
| 20260503194551 | 11 | 206 | 4.8 | 20.9 | 0.00 | 0.05 | 0.05 | 45 | 1010.2 |
| 20260503193050 | 11 | 192 | 4.8 | 19.3 | 0.00 | 0.05 | 0.05 | 45 | 1010.5 |
| 20260503191553 | 11 | 252 | 1.6 | 9.7 | 0.00 | 0.05 | 0.05 | 43 | 1010.5 |
| 20260503190058 | 11 | 219 | 3.2 | 14.5 | 0.00 | 0.05 | 0.05 | 44 | 1010.4 |
| 20260503184605 | 11 | 228 | 1.6 | 14.5 | 0.00 | 0.05 | 0.05 | 44 | 1010.5 |
| 20260503183054 | 11 | 269 | 1.6 | 11.3 | 0.00 | 0.05 | 0.05 | 46 | 1010.7 |
| 20260503181601 | 11 | 221 | 4.8 | 16.1 | 0.00 | 0.05 | 0.05 | 44 | 1011.0 |
| 20260503180109 | 10 | 246 | 1.6 | 9.7 | 0.05 | 0.05 | 0.05 | 45 | 1011.0 |
| 20260503174559 | 11 | 0 | 3.2 | 9.7 | 0.05 | 0.05 | 0.05 | 43 | 1011.1 |
| 20260503173106 | 11 | 243 | 3.2 | 14.5 | 0.05 | 0.05 | 0.05 | 43 | 1011.2 |
| 20260503171550 | 10 | 269 | 0.0 | 12.9 | 0.05 | 0.05 | 0.05 | 46 | 1011.4 |
| 20260503160107 | 8 | 237 | 4.8 | 17.7 | 0.00 | 0.00 | 0.00 | 46 | 1012.7 |
| 20260503081553 | 2 | 0 | 0.0 | 3.2 | 0.00 | 0.00 | 0.00 | 77 | 1012.4 |
| 20260503071557 | 2 | 0 | 0.0 | 3.2 | 0.00 | 0.00 | 0.00 | 77 | 1012.3 |